Date,TemperatureHighF,TemperatureAvgF,TemperatureLowF,DewpointHighF,DewpointAvgF,DewpointLowF,HumidityHigh,HumidityAvg,HumidityLow,PressureMaxIn,PressureMinIn,WindSpeedMaxMPH,WindSpeedAvgMPH,GustSpeedMaxMPH,PrecipitationSumIn
2013-1-1,49,46,44,45,37,28,86,72,52,30.17,29.99,4,0,0,0.00
2013-1-2,49,44,40,45,39,34,88,83,70,30.27,29.99,7,0,0,0.00
2013-1-3,50,39,27,38,33,23,85,80,61,30.34,30.22,0,0,0,0.00
2013-1-4,52,38,23,35,24,18,86,62,37,30.39,30.26,5,0,0,0.00
2013-1-5,55,37,24,30,24,16,78,60,39,30.46,30.32,3,0,0,0.00
2013-1-6,54,43,34,39,33,28,83,69,53,30.31,30.12,0,0,0,0.00
2013-1-7,55,38,28,35,28,23,86,68,44,30.51,30.24,7,0,0,0.00
2013-1-8,58,42,28,41,33,23,85,72,49,30.54,30.43,0,0,0,0.00
2013-1-9,70,50,34,52,41,30,89,72,51,30.52,30.43,0,0,0,0.00
2013-1-10,68,53,46,47,42,35,85,68,47,30.61,30.48,4,0,0,0.00
2013-1-11,53,48,42,47,40,31,87,77,53,30.51,30.22,1,0,0,0.00
2013-1-12,74,58,49,62,53,45,89,83,66,30.25,30.18,4,0,0,0.00
2013-1-13,78,64,54,64,56,51,90,78,56,30.22,30.13,7,0,0,0.00
2013-1-14,70,63,57,60,57,52,88,81,70,30.23,30.16,7,0,0,0.00
2013-1-15,58,46,44,53,42,40,89,88,85,30.31,30.12,9,1,0,0.00
2013-1-16,50,46,42,47,43,39,90,89,87,30.15,30.04,8,0,0,0.00
2013-1-17,50,46,32,47,43,30,90,89,87,30.22,29.97,22,2,0,0.00
2013-1-18,47,36,26,40,28,22,90,75,45,30.60,30.21,4,0,0,0.00
2013-1-19,57,38,23,39,28,19,89,69,40,30.56,30.22,3,0,0,0.00
2013-1-20,65,46,34,40,33,26,80,62,36,30.22,30.06,7,0,0,0.00
2013-1-21,62,44,29,41,28,18,88,58,34,30.16,29.94,6,0,0,0.00
2013-1-22,42,33,22,18,9,3,47,37,25,30.35,30.02,8,0,0,0.00
2013-1-23,46,29,15,19,12,4,71,51,33,30.44,30.12,3,0,0,0.00
2013-1-24,38,31,21,22,13,4,68,49,31,30.58,30.02,13,1,0,0.00
2013-1-25,28,24,18,22,13,3,82,62,43,30.58,30.17,0,0,0,0.00
2013-1-26,33,28,27,28,24,22,84,83,82,30.31,30.14,0,0,0,0.00
2013-1-27,45,32,20,29,23,16,87,73,51,30.67,30.48,5,0,0,0.00
2013-1-28,53,43,30,44,34,24,81,72,56,30.57,30.30,3,0,0,0.00
2013-1-29,76,58,45,57,50,41,88,73,52,30.31,30.14,7,0,0,0.00
2013-1-30,72,66,59,63,59,53,86,78,70,30.15,29.46,20,2,0,0.00
2013-1-31,64,47,30,59,31,19,83,57,34,30.08,29.53,10,1,0,0.00
2013-2-1,42,34,25,27,15,6,69,47,29,30.45,29.94,17,1,0,0.00
2013-2-2,49,35,17,30,14,6,66,45,31,30.46,30.09,7,0,0,0.00
2013-2-3,52,42,32,39,28,21,81,58,42,30.09,29.92,6,0,0,0.00
2013-2-4,56,38,24,29,23,16,77,55,34,30.21,30.06,4,0,0,0.00
2013-2-5,63,46,36,38,31,24,75,56,38,30.08,29.95,5,0,0,0.00
2013-2-6,65,45,29,40,28,24,86,57,27,30.36,30.04,7,0,0,0.00
2013-2-7,50,42,35,39,34,29,87,74,60,30.40,30.07,9,0,0,0.00
2013-2-8,60,46,39,46,38,27,88,75,54,30.12,29.88,11,1,0,0.00
2013-2-9,64,39,24,31,23,17,77,55,25,30.43,30.11,8,0,0,0.20
2013-2-10,71,41,16,37,23,-8,80,54,24,30.56,30.28,57,0,0,0.02
2013-2-11,62,55,45,57,51,37,88,84,76,30.28,29.99,6,0,0,0.08
2013-2-12,63,54,47,37,33,29,68,46,32,30.16,29.98,7,0,0,0.00
2013-2-13,48,45,41,44,40,33,89,84,66,30.03,29.69,7,0,0,0.26
2013-2-14,55,40,28,35,30,24,88,71,45,30.14,29.90,7,0,0,0.02
2013-2-15,67,43,27,42,31,23,88,67,33,30.16,30.00,8,0,0,0.00
2013-2-16,45,36,31,34,30,26,87,79,62,30.04,29.90,8,0,0,0.26
2013-2-17,40,30,20,26,14,8,84,54,30,30.34,29.98,16,1,0,0.14
2013-2-18,56,34,15,25,18,10,83,56,30,30.48,30.32,5,0,0,0.04
2013-2-19,51,43,32,47,35,22,87,74,56,30.32,29.92,7,0,0,0.14
2013-2-20,56,40,25,100,21,16,87,50,25,30.21,30.03,57,0,0,0.02
2013-2-21,58,40,22,24,20,15,79,48,25,30.34,30.18,9,0,0,0.00
2013-2-22,42,36,32,32,28,20,88,76,44,30.43,30.22,7,0,0,0.35
2013-2-23,43,40,35,40,37,32,89,89,88,30.18,29.88,7,0,0,0.90
2013-2-24,66,49,34,47,37,28,90,67,30,30.11,29.86,8,0,0,0.04
2013-2-25,43,37,31,29,23,21,82,59,46,30.30,30.11,8,0,0,0.00
2013-2-26,56,40,34,52,33,24,89,76,61,30.22,29.64,9,0,0,0.98
2013-2-27,58,46,43,100,41,35,86,73,46,29.85,29.76,7,0,0,0.77
2013-2-28,48,39,30,100,30,23,87,56,44,29.92,29.80,57,0,0,0.00
2013-3-1,52,39,25,33,26,21,86,63,44,29.99,29.89,6,0,0,0.00
2013-3-2,51,37,25,31,24,17,85,62,40,29.99,29.87,6,0,0,0.00
2013-3-3,51,36,24,24,19,14,78,53,34,30.04,29.91,7,0,0,0.00
2013-3-4,55,36,23,22,16,10,70,48,26,30.17,30.04,7,0,0,0.00
2013-3-5,51,41,31,41,33,22,87,72,44,30.15,29.65,7,0,0,0.37
2013-3-6,46,42,37,32,29,26,81,60,51,30.09,29.69,17,1,0,0.31
2013-3-7,54,42,28,32,27,22,82,58,42,30.30,30.09,7,0,0,0.06
2013-3-8,69,42,25,30,25,20,82,53,31,30.35,30.21,9,1,0,0.00
2013-3-9,67,45,28,32,28,22,80,55,27,30.40,30.30,5,0,0,0.00
2013-3-10,72,49,29,34,29,25,84,51,23,30.40,30.28,8,0,0,0.00
2013-3-11,71,55,36,51,42,26,79,63,42,30.32,30.02,57,0,0,0.00
2013-3-12,69,59,28,61,51,19,88,76,50,30.02,29.84,6,0,0,0.80
2013-3-13,58,46,32,36,28,-6,84,50,30,30.20,30.01,8,0,0,0.04
2013-3-14,58,40,27,24,19,15,60,45,26,30.31,30.17,6,0,0,0.00
2013-3-15,65,45,24,36,27,17,78,51,33,30.25,29.97,8,0,0,0.00
2013-3-16,80,61,45,51,43,32,68,53,35,29.97,29.73,8,0,0,0.00
2013-3-17,58,50,40,49,42,35,87,75,62,30.25,29.91,8,0,0,0.00
2013-3-18,43,40,37,39,36,34,89,87,84,30.27,29.98,7,0,0,0.16
2013-3-19,70,53,40,100,34,14,89,56,23,30.09,29.87,8,0,0,0.20
2013-3-20,59,46,32,25,18,11,69,35,24,30.18,29.86,8,0,0,0.00
2013-3-21,47,39,30,29,20,10,71,48,33,30.04,29.79,7,0,0,0.00
2013-3-22,56,36,18,22,16,10,75,47,26,30.15,30.02,4,0,0,0.00
2013-3-23,60,43,30,32,27,20,77,55,34,30.12,29.98,1,0,0,0.00
2013-3-24,42,37,32,35,31,26,87,79,64,30.01,29.65,7,0,0,0.77
2013-3-25,50,40,34,36,29,22,88,67,41,29.88,29.62,7,0,0,0.61
2013-3-26,50,40,31,100,25,22,72,54,44,30.17,29.88,4,0,0,0.02
2013-3-27,56,42,30,28,24,20,73,50,32,30.29,30.17,8,0,0,0.00
2013-3-28,60,42,24,30,24,18,82,52,30,30.36,30.21,7,0,0,0.00
2013-3-29,62,43,25,32,26,20,83,56,29,30.40,30.25,5,0,0,0.00
2013-3-30,70,52,35,41,35,28,79,55,31,30.32,30.15,2,0,0,0.00
2013-3-31,70,57,48,56,48,41,87,73,58,30.18,29.89,8,0,0,0.71
2013-4-1,76,64,51,52,44,34,89,49,32,30.06,29.89,57,0,0,0.41
2013-4-2,64,49,31,34,28,24,81,48,27,30.23,30.06,7,0,0,0.06
2013-4-3,64,48,38,30,25,21,65,43,25,30.37,30.20,8,0,0,0.00
2013-4-4,50,42,39,36,30,22,87,63,44,30.43,29.98,7,0,0,0.73
2013-4-5,68,48,39,48,40,36,88,76,44,30.08,29.93,8,0,0,0.53
2013-4-6,70,53,37,37,33,26,87,51,30,30.34,30.08,7,0,0,0.00
2013-4-7,74,55,33,46,38,28,84,56,35,30.36,30.18,7,0,0,0.00
2013-4-8,82,66,51,57,51,45,87,62,39,30.25,30.13,7,0,0,0.00
2013-4-9,87,71,55,60,56,51,87,61,37,30.27,30.14,7,0,0,0.00
2013-4-10,89,74,61,63,58,54,82,59,37,30.19,30.02,9,0,0,0.00
2013-4-11,83,71,61,64,59,55,84,66,46,30.09,29.88,8,0,0,0.00
2013-4-12,84,72,62,100,62,44,88,71,47,29.90,29.69,12,0,0,1.28
2013-4-13,79,62,47,100,43,37,76,50,30,30.09,29.85,57,1,0,0.43
2013-4-14,83,63,42,52,44,38,88,56,28,30.18,30.09,2,0,0,0.00
2013-4-15,73,64,58,56,54,50,84,69,54,30.30,30.10,8,0,0,0.02
2013-4-16,81,65,56,61,56,52,89,75,48,30.38,30.28,0,0,0,0.00
2013-4-17,86,69,56,65,59,52,89,73,48,30.31,30.19,7,0,0,0.00
2013-4-18,83,70,58,62,58,54,87,68,47,30.28,30.12,8,0,0,0.00
2013-4-19,85,71,65,68,63,59,88,76,53,30.13,29.80,13,1,0,0.57
2013-4-20,68,56,42,61,41,34,88,60,33,30.34,29.90,11,0,0,0.67
2013-4-21,64,50,39,42,38,35,87,63,42,30.56,30.34,8,0,0,0.06
2013-4-22,63,49,35,43,37,30,84,64,44,30.55,30.33,8,0,0,0.06
2013-4-23,71,54,47,51,45,42,86,72,47,30.34,30.19,8,0,0,0.04
2013-4-24,79,62,44,57,51,41,89,70,44,30.22,30.05,7,0,0,0.04
2013-4-25,76,61,47,54,46,38,83,59,37,30.35,30.08,8,0,0,0.00
2013-4-26,75,59,46,50,43,38,89,61,29,30.50,30.34,8,0,0,0.00
2013-4-27,76,62,50,50,46,41,78,57,34,30.45,30.33,2,0,0,0.00
2013-4-28,62,58,54,100,49,42,88,69,58,30.34,30.18,0,0,0,0.63
2013-4-29,78,65,54,62,58,51,90,80,58,30.18,30.04,0,0,0,1.61
2013-4-30,68,60,53,59,55,49,90,84,71,30.25,30.08,8,0,0,0.08
2013-5-1,61,58,56,56,54,52,89,86,84,30.40,30.23,10,0,0,0.02
2013-5-2,64,58,52,56,53,48,88,84,75,30.40,30.33,8,0,0,0.02
2013-5-3,71,57,47,54,48,41,89,72,50,30.34,30.24,10,0,0,0.00
2013-5-4,65,55,49,52,46,42,83,73,59,30.29,30.15,9,1,0,0.00
2013-5-5,59,55,49,53,49,44,84,80,75,30.18,30.06,10,1,0,0.00
2013-5-6,68,60,55,62,56,52,90,88,81,30.08,29.91,7,0,0,2.10
2013-5-7,75,59,48,59,51,46,90,77,43,30.03,29.93,4,0,0,0.18
2013-5-8,74,61,50,58,53,46,90,77,55,30.08,29.99,2,0,0,0.14
2013-5-9,84,66,53,61,56,50,90,72,42,30.14,30.05,3,0,0,0.14
2013-5-10,87,71,53,63,58,50,89,66,41,30.14,30.02,8,0,0,0.02
2013-5-11,83,72,65,65,61,56,88,69,49,30.04,29.88,8,0,0,0.18
2013-5-12,74,65,48,62,50,36,89,62,34,30.11,29.87,11,0,0,0.18
2013-5-13,69,55,41,42,38,35,83,56,32,30.26,30.09,9,0,0,0.00
2013-5-14,72,55,36,45,39,32,87,59,34,30.33,30.15,7,0,0,0.00
2013-5-15,90,70,54,64,54,42,71,57,41,30.15,29.98,8,0,0,0.00
2013-5-16,87,74,59,64,59,55,86,62,42,30.07,29.98,8,0,0,0.00
2013-5-17,91,74,58,65,60,54,89,65,40,30.17,30.07,5,0,0,0.00
2013-5-18,82,70,61,68,63,57,88,79,61,30.25,30.15,1,0,0,0.12
2013-5-19,81,72,64,100,66,61,90,80,62,30.24,30.14,4,0,0,0.71
2013-5-20,76,71,67,100,68,64,90,82,78,30.19,30.12,0,0,0,0.92
2013-5-21,89,74,68,72,67,64,90,80,55,30.14,30.03,4,0,0,0.04
2013-5-22,88,75,69,69,66,63,88,75,54,30.13,29.99,8,0,0,0.00
2013-5-23,85,74,68,68,66,64,88,77,56,30.04,29.90,4,0,0,0.00
2013-5-24,71,64,47,66,52,38,89,67,36,30.26,29.90,13,0,0,0.10
2013-5-25,77,57,39,47,41,34,87,59,31,30.34,30.21,6,0,0,0.02
2013-5-26,78,59,45,49,45,39,84,62,35,30.35,30.25,0,0,0,0.00
2013-5-27,84,65,47,58,51,44,89,64,37,30.36,30.24,5,0,0,0.00
2013-5-28,86,73,60,67,61,52,87,67,52,30.34,30.22,6,0,0,0.00
2013-5-29,88,74,60,66,62,56,88,66,46,30.33,30.24,7,0,0,0.00
2013-5-30,74,66,61,66,60,57,89,82,72,30.36,30.29,1,0,0,0.00
2013-5-31,90,82,72,68,65,64,76,58,45,30.32,30.18,7,0,0,0.00
2013-6-1,91,78,67,68,65,61,88,66,43,30.23,30.11,8,0,0,0.00
2013-6-2,88,78,68,68,65,62,85,67,49,30.14,29.99,8,0,0,0.06
2013-6-3,87,74,66,72,68,62,89,81,57,30.05,29.92,3,0,0,0.88
2013-6-4,80,70,63,66,62,60,90,78,57,30.19,30.02,8,0,0,0.63
2013-6-5,85,72,62,62,59,56,88,66,43,30.23,30.11,2,0,0,0.02
2013-6-6,78,70,66,70,64,56,89,80,64,30.14,29.91,4,0,0,0.35
2013-6-7,75,70,68,100,67,65,90,90,88,29.94,29.59,9,0,0,4.12
2013-6-8,86,73,67,70,66,63,91,80,55,30.18,29.90,8,0,0,0.06
2013-6-9,89,76,65,73,68,62,90,76,53,30.25,30.14,0,0,0,0.02
2013-6-10,85,75,71,75,70,66,89,84,70,30.19,29.99,11,0,0,0.29
2013-6-11,87,79,67,69,66,63,87,66,48,30.04,29.98,17,0,0,0.04
2013-6-12,92,77,62,74,68,59,90,74,52,30.06,29.95,4,0,0,0.00
2013-6-13,96,80,68,76,70,61,89,74,45,29.96,29.68,12,0,0,0.00
2013-6-14,81,70,57,64,58,53,88,67,45,30.10,29.81,8,0,0,0.00
2013-6-15,86,71,56,64,59,52,90,69,44,30.20,30.09,5,0,0,0.00
2013-6-16,88,76,63,69,62,54,86,64,51,30.21,30.09,8,0,0,0.00
2013-6-17,89,78,71,72,67,63,80,69,53,30.13,30.02,3,0,0,0.00
2013-6-18,86,74,69,72,68,65,89,81,64,30.06,29.83,6,0,0,0.00
2013-6-19,82,73,63,69,64,60,90,77,59,30.21,29.96,3,0,0,0.00
2013-6-20,83,72,62,64,61,53,89,70,50,30.33,30.21,7,0,0,0.00
2013-6-21,85,71,54,64,57,50,87,64,42,30.35,30.27,10,0,0,0.00
2013-6-22,85,74,68,70,66,63,88,79,60,30.30,30.20,8,0,0,0.00
2013-6-23,89,76,66,74,68,63,90,78,59,30.30,30.21,5,0,0,0.00
2013-6-24,88,78,71,74,70,67,88,77,60,30.30,30.18,6,0,0,0.00
2013-6-25,92,77,70,78,69,65,88,77,57,30.22,30.10,7,0,0,0.00
2013-6-26,92,78,68,74,69,63,89,76,54,30.14,29.98,8,0,0,0.00
2013-6-27,91,78,67,75,70,64,90,77,57,30.01,29.80,7,0,0,0.00
2013-6-28,92,79,70,73,70,64,88,75,51,29.84,29.68,10,0,0,0.00
2013-6-29,88,76,67,73,69,64,90,80,60,29.82,29.69,2,0,0,0.00
2013-6-30,89,76,69,75,70,64,90,82,62,29.96,29.80,2,0,0,0.00
2013-7-1,85,75,69,75,70,66,91,83,69,30.09,29.94,6,0,0,0.00
2013-7-2,78,74,71,72,69,67,90,87,80,30.28,30.09,6,0,0,0.00
2013-7-3,88,78,72,76,72,68,90,81,65,30.35,30.25,5,0,0,0.00
2013-7-4,92,80,72,75,71,68,90,74,50,30.38,30.27,4,0,0,0.00
2013-7-5,93,80,71,75,71,67,89,74,53,30.38,30.26,6,0,0,0.00
2013-7-6,90,80,72,74,71,67,88,74,57,30.35,30.21,6,0,0,0.00
2013-7-7,90,79,68,74,70,64,90,76,58,30.28,30.15,11,0,0,0.22
2013-7-8,92,79,72,74,70,67,88,76,51,30.27,30.18,7,0,0,0.02
2013-7-9,91,78,70,77,71,66,89,80,60,30.26,30.15,9,0,0,0.02
2013-7-10,91,79,72,75,71,67,87,77,58,30.20,30.04,12,0,0,0.00
2013-7-11,84,75,72,73,70,68,89,84,68,30.08,29.97,6,0,0,0.00
2013-7-12,78,73,70,70,68,66,90,85,76,30.13,29.96,7,0,0,0.00
2013-7-13,81,74,69,74,69,65,89,86,78,30.28,30.11,7,0,0,0.10
2013-7-14,90,79,69,75,70,66,90,77,55,30.39,30.27,7,0,0,0.02
2013-7-15,91,79,68,76,69,64,89,75,52,30.42,30.34,6,0,0,0.00
2013-7-16,96,81,67,75,70,63,89,72,47,30.37,30.28,4,0,0,0.00
2013-7-17,95,83,74,77,72,70,88,71,48,30.32,30.21,8,0,0,0.00
2013-7-18,96,83,72,78,73,69,88,73,52,30.24,30.13,2,0,0,0.00
2013-7-19,94,82,74,77,72,69,88,73,53,30.20,30.08,8,0,0,0.00
2013-7-20,91,81,74,76,72,69,84,75,58,30.13,30.02,8,0,0,0.00
2013-7-21,90,79,73,74,71,68,85,77,58,30.09,29.99,7,0,0,0.04
2013-7-22,91,80,70,74,71,67,89,75,54,30.05,29.92,7,0,0,0.04
2013-7-23,92,82,74,73,70,68,84,70,50,29.94,29.82,7,0,0,0.00
2013-7-24,96,80,68,74,70,65,89,73,46,29.94,29.83,4,0,0,0.00
2013-7-25,82,73,65,70,66,61,88,80,63,30.13,29.91,8,0,0,0.00
2013-7-26,88,73,60,67,62,57,89,72,47,30.20,30.12,5,0,0,0.00
2013-7-27,89,74,65,72,66,61,89,76,49,30.15,30.03,8,0,0,0.00
2013-7-28,89,77,68,73,68,65,89,76,52,30.11,30.02,6,0,0,0.00
2013-7-29,88,76,67,71,66,62,89,74,50,30.24,30.09,6,0,0,0.00
2013-7-30,89,75,60,69,64,57,88,71,46,30.32,30.22,5,0,0,0.00
2013-7-31,85,77,70,73,69,66,88,77,63,30.24,30.10,8,0,0,0.00
2013-8-1,89,75,69,74,69,65,89,82,61,30.13,29.95,6,0,0,0.00
2013-8-2,92,77,66,73,68,63,90,76,49,30.12,29.99,0,0,0,0.00
2013-8-3,91,77,69,76,70,65,89,80,54,30.11,30.01,7,0,0,0.00
2013-8-4,87,75,64,71,65,60,90,75,45,30.13,29.98,7,0,0,0.00
2013-8-5,85,73,62,66,63,59,89,72,48,30.19,30.10,7,0,0,0.00
2013-8-6,84,74,67,70,65,62,88,73,57,30.16,30.09,8,0,0,0.00
2013-8-7,89,77,66,71,68,62,88,74,53,30.19,30.12,7,0,0,0.00
2013-8-8,93,80,69,74,70,65,88,73,52,30.16,30.09,8,0,0,0.00
2013-8-9,93,82,72,76,72,68,87,74,55,30.15,30.07,8,0,0,0.00
2013-8-10,96,81,73,78,72,66,88,77,53,30.20,30.10,6,0,0,0.00
2013-8-11,94,80,71,76,72,68,90,76,52,30.21,30.10,0,0,0,0.00
2013-8-12,94,81,71,76,71,68,89,73,49,30.14,30.02,0,0,0,0.00
2013-8-13,91,78,70,78,71,66,89,81,60,30.08,29.87,6,0,0,0.02
2013-8-14,78,71,59,70,64,55,89,79,61,30.18,29.91,7,0,0,0.00
2013-8-15,78,65,57,61,57,53,89,77,51,30.25,30.16,7,0,0,0.00
2013-8-16,72,64,57,61,58,53,89,80,67,30.27,30.18,2,0,0,0.00
2013-8-17,72,67,61,68,62,57,89,86,82,30.27,30.20,5,0,0,0.00
2013-8-18,83,73,67,71,66,62,90,81,63,30.29,30.20,8,0,0,0.00
2013-8-19,77,69,66,70,65,62,89,87,79,30.29,30.18,0,0,0,0.00
2013-8-20,86,75,66,73,68,63,90,82,65,30.27,30.19,0,0,0,0.00
2013-8-21,92,77,70,76,71,66,90,82,59,30.32,30.19,0,0,0,0.00
2013-8-22,92,78,68,74,69,65,90,76,49,30.24,30.08,1,0,0,0.00
2013-8-23,90,77,67,75,69,63,90,77,54,30.15,30.02,7,0,0,0.00
2013-8-24,85,72,63,64,61,58,87,70,43,30.39,30.15,9,1,0,0.02
2013-8-25,82,69,58,66,58,54,89,72,45,30.48,30.38,9,0,0,0.02
2013-8-26,87,68,52,64,57,49,89,71,41,30.41,30.20,7,0,0,0.00
2013-8-27,92,73,59,71,63,56,88,73,49,30.22,30.06,3,0,0,0.00